World > North America > United States > Mississippi > Alva  

Alva, MS Hourly Weather Updates

Feedback E-mail the Weather

Quick WX

Alva, MS Weather Maps

°F °C°F °C
Alva Weather Map
UTC Time: 2/26/2024, 08:59
Your Time:

Alva, MS Regional Weather

Expires:202402260900;;715859
ASUS44 KJAN 260810
RWRMS 

MISSISSIPPI HOURLY WEATHER ROUNDUP
NATIONAL WEATHER SERVICE JACKSON MS
200 AM CST MON FEB 26 2024

NOTE: "FAIR: INDICATES FEW OR NO CLOUDS BELOW 12,000 FEET WITH NO
SIGNIFICANT WEATHER AND/OR OBSTRUCTIONS TO VISIBILITY.


MSZ001>002-007>008-010>013-018>021-025>028-034>036-260900-
NORTHWEST MISSISSIPPI
  
CITY           SKY/WX    TMP DP  RH WIND       PRES   REMARKS
BATESVILLE     PTCLDY    61  43  51 SW13      29.99S                  
CLARKSDALE       N/A     61 N/A N/A S12       29.98S                  
GREENWOOD      CLEAR     56  43  61 S7        30.02S                  
GREENVILLE     CLEAR     64  46  52 S15       29.98S                  
OLIVE BRANCH   CLEAR     63  39  42 SW15G22   29.95S                  
OXFORD         CLEAR     57  36  44 S7        30.02S                  
TUNICA         PTCLDY    60  46  59 S14       29.96S                  
WINONA         CLEAR     51  38  61 CALM      30.03S                  
$$


SKY/WX - Weather  TMP - Temperature  DP - Dew Point  RH - Humidity
WIND - Wind Direction/Speed PRES - Barometric Pressure VSB - Visibility
WCI - Wind Chill Index E13G22 Wind - East Wind 13 mph/Gusts of 22 mph

Trending Headlines

Trending Entertainment Headlines

Alva Radar Loop

Use the map search tool if you want to place a location marker on the radar map...

Alva Quick Facts

National Two Day Weather Forecast


E-mail the Alva Weather Forecast

Voice your opinion or tell us about page issues...